Weather Roundup
Issued by NWS

Home | Current Version | Previous Version | Graphics & Text | Print | Product List | Glossary Off
Versions: 1 2 3 4 5 6 7 8 9 10 11 12 13 14 15 16 17 18 19 20 21 22 23 24 25 26 27 28 29 30 31 32 33 34 35 36 37 38 39 40 41 42 43 44 45 46 47 48 49 50

888
NZUS93 KARX 230410
HRRWXR

CURRENT HOURLY OBSERVATIONS ACROSS
MUCH OF THE UPPER MISSISSIPPI VALLEY
NATIONAL WEATHER SERVICE LA CROSSE WI
1100 PM CDT WED MAR 22 2017


...SOUTHEAST MINNESOTA...


CITY           SKY/WX    TMP DP  RH WIND       PRES   REMARKS
ROCHESTER      CLOUDY    34  19  54 SE15      30.29F WCI  24
ROCHESTER/MAYO CLOUDY    36  14  41 SE10G20   30.29F WCI  28
WINONA         CLOUDY    36  14  41 SE10      30.34F WCI  28
AUSTIN         CLOUDY    36  19  51 SE12G18   30.29R WCI  27
ALBERT LEA     CLOUDY    36  19  51 SE18      30.26F WCI  25
DODGE CENTER   CLOUDY    34  21  60 SE16      30.27S WCI  23
PRESTON        CLOUDY    34  15  45 SE10      30.31F WCI  26
OWATONNA       CLOUDY    37  18  44 SE13      30.27S WCI  29
FARIBAULT      CLOUDY    37  19  48 SE12      30.28S WCI  30
$$

...ELSEWHERE IN MINNESOTA...


CITY           SKY/WX    TMP DP  RH WIND       PRES   REMARKS
MINNEAPOLIS    CLOUDY    38  14  37 SE17      30.29F WCI  28
INTNL FALLS    CLOUDY    33  11  39 S12G23    30.20F WCI  24
DULUTH         CLOUDY    28  20  71 E9        30.30F WCI  19
RED WING       CLOUDY    37   9  30 SE12      30.31F WCI  30
REDWOOD FALLS  CLOUDY    36  23  59 SE20G26   30.18F WCI  25
MANKATO        CLOUDY    36  22  56 SE17      30.24F WCI  26
WORTHINGTON    PTCLDY    36  23  59 SE14      30.16S WCI  27
FAIRMONT       CLOUDY    36  23  59 SE21      30.20F WCI  25
$$

...SOUTHWEST WISCONSIN...


CITY           SKY/WX    TMP DP  RH WIND       PRES   REMARKS
LA CROSSE      CLOUDY    38  14  37 SE8       30.36F WCI  32
PRAIRIE DU CHI CLOUDY    37  16  42 E8        30.36F WCI  30
BOSCOBEL       CLOUDY    37  17  44 VRB3      30.39F
LONE ROCK      CLOUDY    32  20  61 SE8       30.41F WCI  25
PLATTEVILLE    CLOUDY    34  23  64 E10       30.38F WCI  26
FORT MC COY    PTCLDY    31  16  52 E5        30.39F WCI  26
CAMP DOUGLAS   MOCLDY    28  18  64 SE7       30.39F WCI  21
MAUSTON-NEW LI PTCLDY    32  19  58 SE3       30.40S
VIROQUA        CLOUDY    33  15  47 SE13      30.35F WCI  24
WIS DELLS      CLEAR     29  20  67 SE8       30.41S WCI  22
$$

...ELSEWHERE IN WISCONSIN...


CITY           SKY/WX    TMP DP  RH WIND       PRES   REMARKS
MILWAUKEE      PTCLDY    26  17  68 CALM      30.48F
MADISON        CLEAR     28  19  69 SE7       30.44S WCI  21
GREEN BAY      CLEAR     25  21  85 SE6       30.49S WCI  18
EAU CLAIRE     CLOUDY    34  10  37 SE9       30.34F WCI  27
BLACK RVR FLS  MOCLDY    31   9  38 SE3       30.38S
MEDFORD        CLOUDY    28  15  57 SE8       30.37S WCI  20
WAUSAU         CLEAR     26  13  57 SE7       30.40R WCI  18
WIS RAPIDS     CLEAR     27  15  61 SE7       30.42S WCI  19
MARSHFIELD     MOCLDY    29  15  56 SE7       30.38S WCI  22
RICE LAKE      MOCLDY    33  10  38 CALM      30.34F
$$

...NORTHEAST IOWA...


CITY           SKY/WX    TMP DP  RH WIND       PRES   REMARKS
WATERLOO       CLOUDY    37  20  50 SE14      30.33R WCI  28
DUBUQUE        CLOUDY    36  22  56 SE12      30.36F WCI  28
DECORAH        CLOUDY    36  18  48 SE10      30.31F WCI  28
MASON CITY     CLOUDY    35  20  54 SE16G23   30.29S WCI  25
CHARLES CITY   CLOUDY    37  19  48 SE15      30.32R WCI  28
OELWEIN        CLOUDY    36  23  60 SE14G26   30.33S WCI  27
$$

...ELSEWHERE IN IOWA...


CITY           SKY/WX    TMP DP  RH WIND       PRES   REMARKS
DES MOINES     CLOUDY    43  18  36 SE14      30.26F
IOWA CITY      CLOUDY    38  24  57 SE12      30.38S WCI  30
FORT DODGE     CLOUDY    39  19  45 SE13      30.24F WCI  32
MARSHALLTOWN   CLOUDY    39  21  48 SE17G26   30.29S WCI  30
CEDAR RAPIDS   PTCLDY    36  23  59 SE17G24   30.33F WCI  26
$$

...NORTHERN ILLINOIS...


CITY           SKY/WX    TMP DP  RH WIND       PRES   REMARKS
CHICAGO-OHARE  PTCLDY    30  19  63 E6        30.47S WCI  24
CHICAGO-MIDWAY PTCLDY    32  23  69 E6        30.48F WCI  26
MOLINE         CLOUDY    37  20  50 SE13      30.40F WCI  29
ROCKFORD       CLOUDY    30  18  60 E8        30.48R WCI  22
PEORIA         CLOUDY    36  21  54 E9        30.42F WCI  29
$$

NOTE: "FAIR" INDICATES FEW OR NO CLOUDS BELOW 12,000 FEET WITH NO
SIGNIFICANT WEATHER AND/OR OBSTRUCTIONS TO VISIBILITY. WIND
SPEEDS ARE IN MILES-PER-HOUR.




USA.gov is the U.S. government's official web portal to all federal, state and local government web resources and services.